CW9790 Weather Reports


Display with metric or nautical units.
time (UTC)temp
F
wind
direction
speed
MPH
gust
MPH
rain 1hr
in
rain 24hr
in
rain mn
in
humidity
%
barometer
mb
20260507193017 60 68 3.0 8.0 0.00 0.01 0.01 86 1014.7
20260507192016 59 45 3.0 6.0 0.00 0.01 0.01 87 1014.3
20260507191016 59 68 3.0 6.0 0.00 0.01 0.01 86 1014.8
20260507190016 60 45 3.0 7.0 0.00 0.01 0.01 85 1015.2
20260507185016 60 68 3.0 7.0 0.00 0.01 0.01 84 1015.1
20260507184036 61 23 3.0 9.0 0.00 0.01 0.01 83 1015.5
20260507183016 61 45 4.0 12.0 0.00 0.01 0.01 83 1015.6
20260507182016 60 23 5.0 12.0 0.00 0.01 0.01 83 1015.6
20260507181036 61 23 4.0 10.0 0.00 0.01 0.01 83 1015.8
20260507180016 61 0 4.0 10.0 0.00 0.01 0.01 81 1015.9
20260507175037 62 0 3.0 6.0 0.00 0.01 0.01 83 1015.8
20260507174016 60 68 1.0 5.0 0.00 0.01 0.01 87 1015.4
20260507173037 59 23 2.0 7.0 0.00 0.01 0.01 86 1016.0
20260507172016 59 23 1.0 6.0 0.00 0.01 0.01 86 1015.9
20260507171036 60 45 3.0 8.0 0.00 0.01 0.01 86 1015.2
20260507170016 60 68 4.0 12.0 0.00 0.01 0.01 85 1015.2
20260507165036 61 68 6.0 14.0 0.00 0.01 0.01 87 1014.5
20260507164016 59 45 5.0 15.0 0.00 0.01 0.01 92 1014.8
20260507163018 56 23 5.0 12.0 0.01 0.01 0.01 93 1014.7
20260507162017 56 0 4.0 11.0 0.01 0.01 0.01 94 1015.6
20260507161017 56 23 3.0 9.0 0.01 0.01 0.01 94 1016.0
20260507160038 55 45 5.0 14.0 0.01 0.01 0.01 94 1014.8
20260507155017 55 23 5.0 12.0 0.01 0.01 0.01 94 1014.9
20260507154018 54 23 6.0 14.0 0.01 0.01 0.01 94 1014.7
20260507153017 54 23 6.0 13.0 0.00 0.00 0.00 94 1014.8
20260507152018 54 45 5.0 16.0 0.00 0.00 0.00 94 1014.5
20260507151017 54 23 5.0 12.0 0.00 0.00 0.00 94 1016.0
20260507150018 54 0 4.0 10.0 0.00 0.00 0.00 94 1016.4
20260507145039 54 23 5.0 12.0 0.00 0.05 0.00 94 1016.2
20260507144038 54 45 3.0 11.0 0.00 0.05 0.00 94 1015.6
20260507143017 54 45 3.0 12.0 0.00 0.05 0.00 94 1015.6
20260507142038 54 23 5.0 16.0 0.00 0.05 0.00 94 1014.7
20260507141017 54 68 5.0 14.0 0.00 0.05 0.00 94 1014.4
20260507140018 54 45 5.0 13.0 0.00 0.06 0.00 94 1014.5
20260507135017 54 23 5.0 15.0 0.00 0.06 0.00 94 1015.4
20260507134017 54 23 5.0 15.0 0.00 0.07 0.00 94 1015.1
20260507133017 54 45 6.0 15.0 0.00 0.07 0.00 94 1014.8
20260507132037 55 23 5.0 11.0 0.00 0.08 0.00 93 1015.3
20260507131018 55 23 5.0 13.0 0.00 0.08 0.00 94 1015.4
20260507130017 55 23 6.0 14.0 0.00 0.08 0.00 94 1015.0
20260507125037 55 45 5.0 13.0 0.00 0.08 0.00 94 1015.1
20260507124038 55 23 5.0 12.0 0.00 0.08 0.00 93 1014.5
20260507123017 55 0 4.0 14.0 0.00 0.08 0.00 93 1013.9
20260507122037 55 23 4.0 12.0 0.00 0.09 0.00 93 1014.1
20260507121017 55 0 4.0 14.0 0.00 0.09 0.00 93 1013.7
20260507120017 56 23 6.0 14.0 0.00 0.09 0.00 93 1013.7
20260507115017 56 0 6.0 11.0 0.00 0.09 0.00 93 1014.0
20260507114017 56 45 3.0 10.0 0.00 0.09 0.00 92 1014.1
20260507113017 56 45 4.0 14.0 0.00 0.09 0.00 92 1013.9
20260507112017 56 45 4.0 11.0 0.00 0.09 0.00 92 1013.6
20260507111037 57 0 5.0 13.0 0.00 0.09 0.00 92 1013.4
20260507110016 57 23 5.0 12.0 0.00 0.09 0.00 92 1013.6
20260507105017 57 23 4.0 9.0 0.00 0.09 0.00 92 1013.4
20260507104017 57 23 4.0 8.0 0.00 0.09 0.00 92 1013.2
20260507103017 57 45 3.0 11.0 0.00 0.09 0.00 92 1013.6
20260507102017 57 45 4.0 10.0 0.00 0.09 0.00 92 1013.3
20260507101017 57 23 4.0 13.0 0.00 0.09 0.00 91 1013.1
20260507100037 57 23 3.0 10.0 0.00 0.09 0.00 92 1013.2
20260507095017 57 23 3.0 7.0 0.00 0.09 0.00 92 1013.2
20260507094017 57 23 2.0 6.0 0.00 0.09 0.00 92 1013.0
20260507093016 57 23 3.0 7.0 0.00 0.09 0.00 92 1012.9
20260507092036 57 23 3.0 7.0 0.00 0.09 0.00 92 1012.9
20260507091016 58 23 3.0 7.0 0.00 0.09 0.00 92 1012.9
20260507090016 58 45 2.0 7.0 0.00 0.09 0.00 93 1013.0
20260507085037 58 23 2.0 6.0 0.00 0.09 0.00 93 1013.4
20260507084037 58 23 2.0 5.0 0.00 0.09 0.00 93 1013.1
20260507083016 58 23 2.0 6.0 0.00 0.09 0.00 93 1013.3
20260507082016 58 23 2.0 5.0 0.00 0.09 0.00 93 1012.9
20260507081017 58 45 1.0 5.0 0.00 0.09 0.00 93 1013.0
20260507080017 58 45 1.0 3.0 0.00 0.09 0.00 93 1013.1
20260507075017 58 0.0 1.0 0.00 0.09 0.00 92 1013.1
20260507074016 58 0.0 3.0 0.00 0.09 0.00 92 1012.9
20260507073016 58 0.0 2.0 0.00 0.09 0.00 92 1013.2
20260507072016 58 45 1.0 4.0 0.00 0.09 0.00 92 1012.9
20260507071016 59 0.0 3.0 0.00 0.09 0.00 92 1013.2
20260507070016 59 0.0 0.0 0.00 0.09 0.00 92 1013.3
20260507065037 59 0.0 3.0 0.00 0.09 0.00 92 1012.8
20260507064016 59 0.0 2.0 0.00 0.09 0.00 92 1012.8
20260507063017 59 45 1.0 4.0 0.00 0.09 0.00 92 1012.7
20260507062016 59 45 1.0 5.0 0.00 0.09 0.00 92 1013.1
20260507061016 59 23 1.0 6.0 0.00 0.09 0.00 93 1013.2
20260507060038 59 45 2.0 9.0 0.00 0.09 0.00 93 1012.7
20260507055016 59 23 3.0 10.0 0.00 0.09 0.00 93 1012.1
20260507054036 59 45 3.0 10.0 0.00 0.09 0.00 93 1012.2
20260507053016 59 45 3.0 11.0 0.00 0.09 0.00 93 1012.1
20260507052016 59 23 5.0 13.0 0.00 0.09 0.00 93 1011.8
20260507051018 59 0 5.0 13.0 0.00 0.09 0.00 93 1011.8
20260507050016 59 45 4.0 11.0 0.00 0.09 0.09 94 1012.1
20260507045017 59 0 4.0 10.0 0.00 0.09 0.09 93 1011.9
20260507044018 59 23 4.0 10.0 0.00 0.09 0.09 93 1012.2
20260507043017 59 23 3.0 9.0 0.00 0.09 0.09 93 1012.3
20260507042018 59 45 4.0 10.0 0.00 0.09 0.09 93 1012.0
20260507041017 59 0 3.0 9.0 0.00 0.09 0.09 93 1012.2
20260507040017 59 23 3.0 10.0 0.00 0.09 0.09 93 1011.9
20260507035017 59 23 3.0 10.0 0.00 0.09 0.09 93 1011.7
20260507034057 59 45 3.0 7.0 0.00 0.09 0.09 93 1011.7
20260507033017 59 45 4.0 11.0 0.00 0.09 0.09 93 1012.0
20260507032018 59 68 3.0 7.0 0.00 0.09 0.09 93 1012.3
20260507031037 60 45 3.0 11.0 0.00 0.09 0.09 93 1011.9
20260507030038 60 23 2.0 7.0 0.00 0.09 0.09 92 1011.8
20260507025037 59 45 2.0 6.0 0.00 0.09 0.09 92 1012.1
20260507024017 59 68 2.0 11.0 0.00 0.09 0.09 92 1011.5
20260507023017 59 23 4.0 12.0 0.00 0.09 0.09 92 1011.2
20260507022037 59 68 3.0 8.0 0.00 0.09 0.09 91 1010.9
20260507021017 60 0 2.0 7.0 0.00 0.09 0.09 92 1011.1
20260507020017 60 0 3.0 10.0 0.00 0.09 0.09 91 1011.0
20260507015037 60 0 3.0 9.0 0.00 0.09 0.09 91 1011.2
20260507014016 60 0 3.0 9.0 0.00 0.09 0.09 91 1011.0
20260507013017 60 23 3.0 6.0 0.00 0.09 0.09 91 1010.9
20260507012017 60 45 2.0 7.0 0.00 0.09 0.09 91 1011.0
20260507011017 60 23 3.0 9.0 0.00 0.09 0.09 91 1010.4
20260507010016 60 0 2.0 6.0 0.00 0.09 0.09 91 1010.1
20260507005017 60 23 2.0 7.0 0.00 0.09 0.09 91 1010.2
20260507004016 60 0 2.0 6.0 0.00 0.09 0.09 91 1010.0
20260507003016 60 45 2.0 7.0 0.00 0.09 0.09 91 1010.0
20260507002017 60 23 2.0 6.0 0.00 0.09 0.09 90 1009.6
20260507001017 60 23 3.0 7.0 0.00 0.09 0.09 90 1009.8
20260507000037 60 23 3.0 9.0 0.00 0.09 0.09 90 1009.7
20260506235057 60 0 3.0 9.0 0.00 0.09 0.09 90 1009.8
20260506234016 60 23 3.0 9.0 0.00 0.09 0.09 90 1009.4
20260506233016 60 23 5.0 12.0 0.00 0.09 0.09 89 1009.1
20260506232016 60 23 3.0 7.0 0.00 0.09 0.09 89 1009.0
20260506231017 60 0 4.0 10.0 0.00 0.09 0.09 90 1009.2
20260506230016 61 23 4.0 11.0 0.00 0.09 0.09 89 1009.4
20260506225016 61 0 4.0 11.0 0.00 0.09 0.09 89 1009.3
20260506224056 61 0 4.0 10.0 0.00 0.09 0.09 89 1009.4
20260506223036 61 0 4.0 11.0 0.00 0.09 0.09 88 1008.9
20260506222016 62 23 4.0 11.0 0.00 0.09 0.09 88 1009.2
20260506221016 62 0 3.0 11.0 0.00 0.09 0.09 87 1009.1
20260506220016 62 0 4.0 9.0 0.00 0.09 0.09 87 1009.3
20260506215037 63 23 5.0 14.0 0.00 0.09 0.09 86 1009.2
20260506214016 63 23 4.0 10.0 0.00 0.09 0.09 87 1009.3
20260506213036 63 0 4.0 11.0 0.00 0.09 0.09 87 1009.1
20260506212036 63 0 5.0 11.0 0.00 0.09 0.09 87 1009.2
20260506211016 63 23 4.0 14.0 0.00 0.09 0.09 87 1009.2
20260506210016 63 0 5.0 10.0 0.00 0.09 0.09 87 1009.4
20260506205016 64 0 5.0 12.0 0.00 0.09 0.09 85 1009.3
20260506204016 65 0 5.0 11.0 0.00 0.09 0.09 84 1009.5
20260506203016 66 23 5.0 10.0 0.00 0.09 0.09 84 1009.5
20260506202016 68 23 5.0 14.0 0.00 0.09 0.09 80 1009.7
20260506201016 66 23 5.0 12.0 0.00 0.09 0.09 84 1009.5
20260506200036 65 0 5.0 11.0 0.00 0.09 0.09 85 1009.4
20260506195017 65 0 4.0 11.0 0.00 0.09 0.09 88 1009.5
20260506194016 64 338 5.0 11.0 0.00 0.09 0.09 86 1009.4